Regional Weather Roundup
Issued by NWS Grand Forks, ND

Home | Current Version | Previous Version | Text Only | Print | Product List | Glossary On
Versions: 1 2 3 4 5 6 7 8 9 10 11 12 13 14 15 16 17 18 19 20 21 22 23 24 25 26 27 28 29 30 31 32 33 34 35 36 37 38 39 40 41 42 43 44 45 46 47 48 49 50
000
ASUS43 KFGF 181931
RWRFGF
PRAIRIE TO PINES  WEATHER ROUNDUP
NATIONAL WEATHER SERVICE EASTERN NORTH DAKOTA/GRAND FORKS ND
100 PM CST THU JAN 18 2018

 **SATELLITE DATA USED TO AUGMENT SKY COVER AT AUTOMATED STATIONS**
 *****  WEATHER ACROSS EASTERN NORTH DAKOTA  *****

CITY           SKY/WX    TMP DP  RH WIND       PRES   REMARKS
GRAND FORKS    CLOUDY    26  21  81 SW6       29.75F WCI  19
GRAND FRKS AFB FAIR      29  19  65 SW3       29.73F
GRAND FRKS NWS   N/A     27 N/A N/A W5          N/A  WCI  21
DEVILS LAKE    FAIR      25  19  78 SW3       29.71F
FARGO          FAIR      30  23  75 SW6       29.77F WCI  24
WAHPETON ARPT  FAIR      34  25  69 W7        29.78F
$$

 ***** WEATHER ACROSS CENTRAL AND WESTERN NORTH DAKOTA  *****

CITY           SKY/WX    TMP DP  RH WIND       PRES   REMARKS
BISMARCK       FAIR      31  22  69 CALM      29.76F
MINOT          FAIR      37  23  56 SW13      29.67F
JAMESTOWN      FAIR      33  24  69 W7        29.74F
MINOT AFB      FAIR      37  25  62 W9        29.65F
GARRISON         N/A     32  23  69 CALM      29.70F
WILLISTON      FAIR      34  24  67 SW8       29.69F
DICKINSON      FAIR      41  26  55 W16       29.71F
HETTINGER      FAIR      38  26  62 W7        29.78F
$$

 *****  OTHER AIRPORT OBSERVATIONS IN OUR AREA  *****

CITY           SKY/WX    TMP DP  RH WIND       PRES   REMARKS
WALHALLA       FAIR      30  30 100 CALM      29.70F
GRAFTON AIRPOR FAIR      27  21  80 S5        29.74F WCI  21
VALLEY CITY AR FAIR      30  27  86 SW7       29.76S WCI  23
CANDO          FAIR      28  19  69 SW9       29.71F WCI  20
CAVALIER APRT    N/A     28  21  74 S7        29.71F WCI  21
GWINNER          N/A     34  25  69 SW8       29.77F
SHEYENNE NWR     N/A     35  25  67 SW5       29.95S
ROLLA          FAIR      27  19  74 S10       29.65F WCI  17
 ***** THE ABOVE OBSERVATIONS ARE NON NWS ARE NOT QUALITY
       CONTROLLED AND MAY MIS-REPORT RAIN FOR SNOW...
$$

  *****  WEATHER ACROSS NORTHERN MINNESOTA  *****

CITY           SKY/WX    TMP DP  RH WIND       PRES   REMARKS
FLAG ISLAND    FAIR      27  16  63 W9        29.68S WCI  17
WARROAD        CLOUDY    25  19  80 W9        29.72S WCI  15
ROSEAU         CLOUDY    27  21  80 W6        29.72F WCI  20
HALLOCK        CLOUDY    27  21  80 S5        29.73F WCI  21
THF RVR FALLS  FAIR      28  23  80 S8        29.74F WCI  20
BAUDETTE       CLOUDY    26  20  77 W10       29.69F WCI  16
WASKISH        CLOUDY    28  25  86 W6        29.73R WCI  22
CROOKSTON      FAIR      27  21  80 CALM      29.76S
STEPHEN NDAWN    N/A     28  19  69 S5          N/A  WCI  23
GREENBUSH NDAW   N/A     27  19  74 SE2         N/A
$$
  *****  WEATHER ACROSS CENTRAL AND WEST MINNESOTA  *****

CITY           SKY/WX    TMP DP  RH WIND       PRES   REMARKS
FOSSTON        FAIR      28  19  69 S8        29.74F WCI  20
BEMIDJI        CLOUDY    31  26  78 W8        29.73S WCI  24
PARK RAPIDS    FAIR      32  26  78 NW5       29.74F
ELBOW LAKE     FAIR      35  25  68 NW7       29.79S
WADENA         FAIR      34  21  60 W3        29.75F
DETROIT LAKES  FAIR      32  23  69 CALM      29.76F
MOORHEAD       FAIR      28  21  74 S6        29.77F WCI  22
FERGUS FALLS   FAIR      32  25  74 NW3       29.77F
MORRIS MN      FAIR      43  27  52 NW8       29.78F
STAPLES        FAIR      34  21  60 CALM      29.75F
$$
  *****  WEATHER ELSEWHERE ACROSS MINNESOTA  *****

CITY           SKY/WX    TMP DP  RH WIND       PRES   REMARKS
DULUTH         CLOUDY    34  26  72 W13       29.70S WCI  25
INTRNTL FALLS  CLOUDY    29  23  78 W8        29.69S WCI  21
ELY            CLOUDY    30  27  86 W10       29.68R WCI  21
CLOQUET        CLOUDY    36  25  64 W10       29.71F
WHEATON        FAIR      41  25  52 W5        29.81F
BRAINERD       FAIR      35  25  66 SW6       29.76F
HIBBING        CLOUDY    30  23  75 NW13      29.71R WCI  20
ALEXANDRIA     FAIR      37  24  59 W6        29.78F
SAINT CLOUD    FAIR      39  25  57 W8        29.78F
MINNEAPOLIS    FAIR      39  25  57 W9        29.82F
$$

  *****  WEATHER ACROSS SOUTH DAKOTA  *****

CITY           SKY/WX    TMP DP  RH WIND       PRES   REMARKS
SIOUX FALLS    CLOUDY    36  27  69 SW7       29.85F
BROOKINGS      FAIR      36  26  67 SW6       29.83F
WATERTOWN      FAIR      37  27  67 SW13      29.79F
HURON          FAIR      37  26  64 S6        29.84F
SISSETON         N/A     43  26  51 W8        29.77F
ABERDEEN       FAIR      36  27  69 S9        29.80F
MITCHELL       FAIR      39  28  64 SW9       29.86F
PIERRE         FAIR      37  25  61 SW5       29.83F
MOBRIDGE       FAIR      35  25  66 SE5       29.77F
RAPID CITY     FAIR      52  25  35 E3        29.84F
$$

  *****  SOME WEATHER IN NEARBY STATES *****

CITY           SKY/WX    TMP DP  RH WIND       PRES   REMARKS
GLASGOW MT     FAIR      30  25  81 SE7       29.66F WCI  23
GREAT FALLS MT FAIR      49  31  49 W16       29.71F
CHEYENNE WY    FAIR      54  16  22 W16       30.04F
SCOTTSBLUFF NE FAIR      45  30  55 N3        29.97F
OMAHA NE       PTSUNNY   34  18  52 S13       30.02F WCI  25
DES MOINES IA  FAIR      33  17  51 SW16      30.02F WCI  23
DAVENPORT IA   FAIR      32  16  51 SW16      30.07F WCI  21
CHICAGO IL     FAIR      29  16  58 SW21G26   30.03F WCI  16
EAU CLAIRE WI  FAIR      33  21  61 SW10      29.81F WCI  25
LA CROSSE WI   FAIR      34  22  61 S10       29.90F
$$

  *****  SOME NATIONAL WEATHER *****

CITY           SKY/WX    TMP DP  RH WIND       PRES   REMARKS
LA GUARDIA NY  FAIR      32  10  40 NW13      29.93F WCI  22
RALEIGH NC     FAIR      32  19  58 W8        30.23F WCI  25
ATLANTA GA     FAIR      37  14  38 NW13      30.36F
NEW ORLEANS LA FAIR      38  21  50 N7        30.51F
OKLAHOMA CITY  FAIR      46   4  17 S21G26    30.28F
ALBUQUERQUE NM PTSUNNY   41  16  36 CALM      30.28F
SALT LAKE CITY PTSUNNY   52  28  39 S14       30.16F
LOS ANGELES CA FAIR      70  49  47 CALM      30.10F
BOISE ID       FAIR      54  36  50 SE20G29   29.90F
SEATTLE WA     PTSUNNY   49  39  68 SE13      29.82F
$$

*** WEATHER ACROSS MANITOBA...SASKATCHEWAN AND ONTARIO ***
                ***ONTARIO***

CITY           SKY/WX    TMP DP  RH WIND       PRES   REMARKS
GERALDTON      PTSUNNY   16   7  67 E5        29.66F WCI   9
THUNDER BAY    CLOUDY    23 N/A N/A W3          N/A
SIOUX LOOKOUT  CLOUDY    18  16  93 N3        29.63F FOG
TORONTO        CLOUDY    23  14  68 SW14      29.98F WCI  11
BIG TROUT LK   FLURRIES   9   3  78 SE3       29.75S
PICKLE LAKE    PTSUNNY   18   7  62 SE7       29.64F WCI   8
DRYDEN         CLOUDY    25  23  93 NW5       29.64S WCI  19
KENORA         CLOUDY    23  16  74 SW6       29.66F WCI  16
$$
                *** MANITOBA***

CITY           SKY/WX    TMP DP  RH WIND       PRES   REMARKS
BRANDON        PTSUNNY   25  18  74 W6        29.65F WCI  18
DAUPHIN        SUNNY     25  19  80 SE8       29.60F WCI  16
ISLAND LAKE    MOSUNNY   10   7  85 SE7       29.67S WCI   0
PILOT MOUND      N/A     25  21  86 S6          N/A  WCI  18
THE PAS        FLURRIES   9   5  85 SE14      29.58F WCI  -8
THOMPSON       FLURRIES   9   3  78 S5        29.66F WCI   0
WINNIPEG       CLOUDY    21  16  79 SW6       29.72F WCI  14
LYNN LAKE      FLURRIES   9   7  92 SE6       29.55F WCI  -1
CHURCHILL      FLURRIES   0  -4  85 W5        29.81F WCI -10
GILLAM         LGT SNOW   1  -2  85 E5        29.75F WCI  -8
$$
                ***SASKATCHEWAN***

CITY           SKY/WX    TMP DP  RH WIND       PRES   REMARKS
ESTEVAN        CLOUDY    34  25  69 SW12      29.62F
KINDERSLEY     PTSUNNY   41  34  75 SW29G35   29.40F
LLOYDMINSTER   PTSUNNY   36  30  80 W17G23    29.29F
PRINCE ALBERT  CLOUDY    21  18  86 SE5       29.41F WCI  15
REGINA         CLOUDY    32  25  74 SE7       29.54F
YORKTON        PTSUNNY   27  21  80 S8        29.52F WCI  18
N. BATTLEFORD  SUNNY     32  28  86 S10       29.36F WCI  24
LA RONGE       CLOUDY    21  19  93 NW6       29.40F WCI  14
SASKATOON      PTSUNNY   36  28  75 S13       29.42F
SWIFT CURRENT  SUNNY     41  32  70 SW21      29.50F
$$
NOTE: THESE ARE AUTOMATED STATIONS WITH LIMITED QUALITY CONTROL
      "FAIR" INDICATES FEW OR NO CLOUDS BELOW 12,000 FEET WITH NO
      SIGNIFICANT WEATHER AND/OR OBSTRUCTIONS TO VISIBILITY.
      SKY/WX - SKY CONDITION AND SIGNIFICANT WEATHER.
      TMP - AIR TEMPERATURE.    DP   - DEWPOINT TEMPERATURE.
      RH  - RELATIVE HUMIDITY.  PRES - PRESSURE.
      HX  - HEAT INDEX.         WCI  - WIND CHILL INDEX.
$




USA.gov is the U.S. government's official web portal to all federal, state and local government web resources and services.